Location: Caltech
(34.1382°N, 118.1253°W)
Time: 12:15:53
(UTC-07:00)

OPAL - Visible Passes

Search period start: 29 May 2016 00:00
Search period end: 08 June 2016 00:00
Orbit: 744 x 795 km, 100.2° (Epoch: 29 May)

Date Brightness Start Highest point End Pass type
(mag) Time Alt. Az. Time Alt. Az. Time Alt. Az.
29 May 8.5 01:42:22 10° NNE 01:46:05 45° NE 01:46:05 45° NE visible
29 May 9.6 03:23:20 10° NNW 03:25:49 14° WNW 03:26:23 13° WNW visible
30 May 9.4 01:07:34 10° NE 01:10:12 23° ENE 01:10:12 23° ENE visible
30 May 8.8 02:46:20 10° N 02:50:30 29° WNW 02:50:30 29° WNW visible
31 May 8.1 02:10:24 10° N 02:14:37 54° NNW 02:14:37 54° NNW visible
01 Jun 8.6 01:35:05 10° NNE 01:38:43 40° NE 01:38:43 40° NE visible
01 Jun 9.4 03:15:20 10° NNW 03:18:35 17° WNW 03:19:01 17° WNW visible
02 Jun 9.6 01:00:32 10° NE 01:02:50 19° ENE 01:02:50 19° ENE visible
02 Jun 8.5 02:38:45 10° N 02:43:08 36° WNW 02:43:08 36° WNW visible
03 Jun 8.0 02:03:00 10° NNE 02:07:14 59° N 02:07:14 59° N visible
04 Jun 8.8 01:27:51 10° NNE 01:31:20 34° ENE 01:31:20 34° ENE visible
04 Jun 9.2 03:07:32 10° NNW 03:11:19 21° WNW 03:11:38 21° WNW visible
05 Jun 9.8 00:53:38 10° NE 00:55:26 16° ENE 00:55:26 16° ENE visible
05 Jun 8.2 02:31:14 10° N 02:35:44 44° NW 02:35:44 44° NW visible
06 Jun 8.0 01:55:38 10° NNE 01:59:50 57° NNE 01:59:50 57° NNE visible
06 Jun 9.7 03:37:24 10° NW 03:39:01 11° WNW 03:40:08 11° WNW visible
07 Jun 9.1 01:20:41 10° NE 01:23:56 29° ENE 01:23:56 29° ENE visible
07 Jun 8.9 02:59:50 10° NNW 03:04:02 25° WNW 03:04:14 25° WNW visible
